#timestamp,LO_Frequency,Hit,StdDev 
1667487615.3,286046994.5,N
1667487635.1,286046992.5,N
1667487636.0,286046992.5,N
1667487655.8,286046992.5,N
1667487675.7,286046991.9,N
1667487695.5,286046992.7,N
1667487715.3,286046990.6,N
1667487735.2,286046993.2,N
1667487755.0,286046990.1,N
1667487755.9,286046990.1,N
1667487775.8,286046991.2,N
1667487795.6,286046990.1,N
1667487815.4,286046993.2,N
1667487835.3,286046991.5,N
1667487855.1,286046991.3,N
1667487875.8,286046991.1,N
1667487895.7,286046989.7,N
1667487915.5,286046989.5,N
1667487935.4,286046987.0,Y
1667487955.2,286046992.1,P
1667487975.0,286046994.1,P
1667487975.9,286046994.1,P
1667487995.8,286046992.1,Y
1667488015.6,286047000.7,P
1667488035.4,286047000.0,N
1667488055.3,286046998.5,N
1667488075.1,286046999.4,N
1667488095.9,286046999.6,N
1667488115.7,286046996.9,N
1667488135.5,286046997.6,N
1667488155.4,286046997.9,N
1667488175.2,286046997.7,N
1667488195.0,286046993.3,Y
1667488195.9,286046993.3,P
1667488215.8,286046997.9,N
1667488235.6,286046997.4,N
1667488255.5,286046995.1,N
1667488275.3,286046995.0,N
1667488295.1,286046995.1,N
1667488315.9,286046995.5,N
1667488335.7,286046996.3,N
1667488355.5,286046996.4,N
1667488375.4,286046994.4,Y
1667488395.2,286046997.4,P
1667488415.0,286046998.0,N
1667488416.0,286046998.0,N
1667488435.8,286046997.9,N
1667488455.6,286046995.0,Y
1667488475.5,286046997.3,P
1667488495.3,286046997.4,P
1667488515.1,286046995.0,P
1667488535.9,286046996.0,Y
1667488555.7,286046998.7,P
1667488575.6,286046999.4,N
1667488595.4,286046997.3,N
1667488615.2,286046997.5,N
1667488635.1,286046995.5,Y
1667488636.0,286046995.5,P
1667488655.8,286046998.7,N
1667488675.6,286046997.2,N
1667488695.5,286046995.3,Y
1667488715.3,286046998.3,P
1667488735.2,286046999.0,N
1667488755.9,286046999.2,N
1667488775.7,286046999.0,N
1667488795.6,286047000.4,N
1667488815.4,286047000.8,N
1667488835.2,286046998.7,N
1667488855.1,286046996.7,Y
1667488856.0,286046996.7,P
1667488875.8,286046996.6,N
1667488895.7,286046996.5,P
1667488915.5,286046997.8,N
1667488935.3,286046995.2,Y
1667488955.2,286046998.4,P
1667488975.0,286046999.2,N
1667488975.9,286046999.2,N
1667488995.8,286046997.4,Y
1667489015.6,286046997.2,P
1667489035.4,286046996.8,P
1667489055.3,286046994.9,P
1667489075.1,286046997.6,N
1667489095.8,286046997.6,N
1667489115.7,286046999.5,N
1667489135.5,286046997.6,N
1667489155.4,286046995.4,Y
1667489175.2,286046998.9,P
1667489195.0,286046999.3,N
1667489195.9,286046999.3,N
1667489215.8,286046997.0,Y
1667489235.6,286046998.9,P
1667489255.4,286046998.9,P
1667489275.3,286046998.9,P
1667489295.1,286046999.4,Y
1667489315.9,286046996.5,P
1667489335.7,286046997.2,N
1667489355.5,286046997.0,P
1667489375.4,286046997.2,Y
1667489395.2,286047001.2,P
1667489415.0,286046999.2,N
1667489416.0,286046999.2,N
1667489435.8,286046999.1,N
1667489455.6,286046996.8,N
1667489475.5,286046998.0,N
1667489495.3,286046995.6,Y
1667489515.1,286046997.8,P
1667489535.9,286046996.7,P
1667489555.7,286046997.0,P
1667489575.6,286046994.9,Y
1667489595.4,286047000.5,P
1667489615.2,286047000.7,N
1667489635.1,286046997.4,N
1667489636.0,286046997.4,N
1667489655.8,286046997.2,N
1667489675.6,286046997.4,N
1667489695.5,286046993.6,Y
1667489715.3,286046997.6,P
1667489735.2,286046997.5,P
1667489755.9,286046997.4,P
1667489775.7,286046996.9,Y
1667489795.6,286047000.8,P
1667489815.4,286046998.4,N
1667489835.2,286047001.2,N
1667489855.1,286046999.3,N
1667489856.0,286046999.3,N
1667489875.8,286046998.4,N
1667489895.7,286046996.5,N
1667489915.5,286046997.7,N
1667489935.3,286046997.4,N
1667489955.2,286046995.2,Y
1667489975.0,286046998.0,P
1667489975.9,286046998.0,P
1667489995.7,286046995.0,P
1667490015.6,286046993.7,Y
1667490035.4,286046996.6,P
1667490055.3,286046999.6,N
1667490075.1,286046996.7,N
1667490095.8,286046995.0,Y
1667490115.7,286046997.7,P
1667490135.5,286046999.2,P
1667490155.3,286046996.6,P
1667490175.2,286046996.7,Y
1667490195.0,286047001.1,P
1667490195.9,286047001.1,N
1667490215.8,286046998.4,N
1667490235.6,286047000.8,N
1667490255.4,286046998.6,N
1667490275.3,286046998.2,N
1667490295.1,286046998.7,N
1667490315.9,286046998.3,N
1667490335.7,286046996.5,N
1667490355.5,286046999.2,N
1667490375.4,286046997.2,N
1667490395.2,286046996.7,N
1667490415.0,286046997.4,N
1667490415.9,286046997.4,N
1667490435.8,286046997.4,N
1667490455.6,286046997.5,N
1667490475.5,286046995.3,Y
1667490495.3,286046996.9,P
1667490515.1,286046997.1,P
1667490535.9,286046995.8,P
1667490555.7,286046993.4,Y
1667490575.5,286046999.5,P
1667490595.4,286046999.6,N
1667490615.2,286046999.2,N
1667490635.1,286046996.9,N
1667490636.0,286046996.9,N
1667490655.8,286046999.5,N
1667490675.6,286046998.3,N
1667490695.5,286047000.8,N
1667490715.3,286046997.4,N
1667490735.1,286046997.1,N
1667490755.9,286046998.0,N
1667490775.7,286046994.9,Y
1667490795.6,286046996.6,P
1667490815.4,286046995.0,P
1667490835.2,286046995.7,P
1667490855.1,286046995.8,Y
1667490856.0,286046995.8,P
1667490875.8,286046998.9,P
1667490895.7,286046999.6,N
1667490915.5,286046998.0,N
1667490935.3,286046997.6,N
1667490955.2,286046995.5,Y
1667490975.9,286046999.0,P
1667490995.7,286046999.5,N
1667491015.6,286046997.4,P
1667491035.4,286046998.0,N
1667491055.3,286046995.2,Y
1667491075.1,286046999.4,P
1667491076.0,286046999.4,N
1667491095.8,286046999.1,N
1667491115.7,286046999.5,N
1667491135.5,286046996.5,Y
1667491155.3,286046999.2,P
1667491175.2,286046998.5,P
1667491195.0,286046996.9,P
1667491195.9,286046996.9,Y
